Wind_Speed
13 12 10 8 7 5 4 3 1 1 1 2 2 4 5 7 8 9 10 10 10 10 10 10 10 9 9 8 8 8 9 8 8 7 7 7 7 6 6 5 4 5 4 3
14 12 11 9 8 7 6 3 1 2 2 3 1 2 3 4 5 7 8 8 9 9 9 9 10 9 9 8 7 8 8 8 8 7 7 7 6 6 5 5 4 3 3 3
14 12 13 12 11 9 6 4 4 4 4 4 2 0 2 2 3 5 5 6 7 7 7 7 8 8 7 7 7 7 8 7 7 7 6 6 5 5 4 4 3 3 3 2
16 15 14 14 11 9 7 6 6 8 8 6 6 5 2 2 1 2 4 5 5 6 6 5 6 6 6 5 5 6 6 6 6 6 6 5 4 4 3 3 3 2 2 2
16 16 16 14 12 10 8 8 9 9 10 10 8 7 6 4 3 1 2 3 3 4 5 5 5 5 5 4 4 4 4 5 5 5 5 5 4 3 3 2 2 2 1 0
17 17 16 14 13 12 11 11 11 11 11 12 9 9 8 5 4 2 2 3 3 3 4 4 3 3 4 3 3 3 3 3 4 3 3 3 4 4 3 3 2 2 1 2
18 17 16 16 15 14 13 14 14 14 12 11 9 10 8 6 6 5 3 3 4 4 4 4 4 3 3 3 2 2 2 2 3 2 2 2 2 2 2 3 3 2 2 3
20 19 18 18 17 16 15 16 17 16 13 11 9 9 8 8 8 7 6 5 5 5 5 5 5 3 3 3 2 2 1 1 2 2 2 2 2 2 2 2 3 3 4 4
22 20 20 20 19 19 18 18 17 18 16 15 11 9 8 7 8 8 8 7 7 6 6 6 5 4 4 4 4 4 3 3 3 3 2 2 3 3 3 3 4 4 5 5
23 22 21 21 21 20 19 18 18 20 18 17 14 12 9 9 9 10 10 9 8 8 8 8 7 6 6 6 6 5 5 5 5 5 4 4 4 5 4 5 6 6 7 7
24 23 22 22 24 23 22 21 20 20 20 19 18 15 13 12 12 12 12 11 10 10 9 9 9 9 8 8 9 7 7 7 7 6 6 6 6 6 6 7 7 8 8 8
26 25 25 24 24 25 25 24 22 22 22 20 20 18 15 14 14 13 13 13 13 12 11 10 11 11 11 10 10 9 9 9 9 9 8 8 8 8 8 8 9 9 9 10
28 28 27 26 27 27 28 26 25 25 24 24 23 20 17 17 16 16 15 14 14 14 13 11 12 12 12 11 11 11 12 12 12 11 11 11 11 11 10 10 11 11 11 11
31 32 31 30 29 30 30 29 28 27 27 26 25 22 21 20 20 19 18 18 18 17 16 15 14 14 14 14 13 13 13 13 13 13 13 13 13 13 13 13 13 13 13 13
33 33 33 32 31 31 31 30 29 28 28 27 25 23 22 22 22 22 21 21 21 20 20 19 18 17 17 17 16 16 15 15 15 15 15 15 16 15 16 16 16 16 16 16
34 35 34 33 33 31 30 31 30 29 28 28 27 25 24 23 23 23 23 24 25 24 24 23 21 20 20 20 19 19 18 17 17 17 18 18 19 18 18 18 18 18 17 18
36 36 36 35 34 33 32 32 32 31 30 30 30 28 27 26 25 25 25 26 26 26 27 26 26 24 23 23 22 21 20 20 20 20 20 20 20 21 20 20 20 20 20 20
35 36 36 36 35 35 34 33 33 33 32 31 31 30 28 27 26 26 27 28 28 27 27 26 26 27 26 24 24 22 22 22 23 23 23 24 24 23 23 23 22 22 23 23
35 35 36 36 36 35 34 33 34 34 34 34 33 31 31 30 29 29 29 30 28 28 28 28 29 29 27 26 25 25 24 25 25 25 26 26 26 25 25 25 25 25 26 26
35 35 36 37 37 36 35 35 35 35 35 36 36 35 33 32 32 31 31 31 31 30 30 29 30 29 29 28 27 27 27 27 27 27 28 28 28 28 27 27 28 28 29 29
34 35 36 37 38 38 37 36 36 37 37 37 36 36 36 35 34 34 34 34 34 33 32 31 30 30 30 30 30 30 29 29 29 29 30 30 30 30 30 30 30 31 31 31
34 35 36 37 37 37 36 36 37 37 38 38 38 38 38 37 36 36 36 36 36 35 34 33 32 31 31 31 32 32 32 32 32 32 32 32 32 32 33 32 32 33 34 34
33 34 36 37 37 37 36 36 36 37 38 38 39 39 38 38 38 38 38 37 37 37 36 36 35 34 34 33 33 34 34 35 34 34 35 35 34 34 35 35 35 35 35 36
33 34 36 36 37 36 36 36 37 37 37 37 38 38 37 38 38 38 38 38 38 38 37 37 37 37 35 35 35 35 36 36 37 37 37 37 37 37 37 37 38 38 37 38
33 34 35 36 36 36 37 38 37 36 36 37 37 38 37 37 38 38 38 38 38 38 37 37 37 36 36 36 36 36 36 37 38 38 39 39 39 39 39 38 39 39 39 39
34 34 34 36 36 37 37 37 37 36 36 36 37 37 37 38 38 39 40 39 39 38 38 37 37 37 37 37 36 37 37 37 38 38 39 39 39 39 40 40 39 39 40 39
Wind_Direction
200 198 191 178 173 164 152 138 117 58 24 350 39 66 48 56 49 50 49 51 53 52 54 53 54 54 54 60 68 74 75 80 86 89 87 86 85 89 90 88 81 77 79 92
203 196 189 190 198 196 186 208 270 335 338 316 309 63 39 41 36 41 47 52 54 51 55 53 54 55 55 59 67 71 73 73 75 81 85 84 83 86 85 80 68 67 73 89
203 196 197 198 196 202 214 238 264 273 287 314 316 327 4 20 19 30 35 44 50 49 52 55 54 54 55 57 62 66 68 71 73 75 75 74 75 74 69 60 63 65 79 82
204 202 208 204 198 207 216 238 255 260 266 272 273 271 268 268 290 11 18 18 35 38 42 47 52 49 53 54 59 62 64 68 70 73 72 67 68 67 54 44 43 43 82 89
210 208 212 211 206 215 223 232 242 251 259 263 256 262 256 247 245 280 351 354 4 11 23 36 44 47 46 46 49 58 64 66 67 72 69 64 58 49 40 33 33 47 70 22
215 211 216 212 207 217 226 238 242 242 254 264 255 262 254 244 236 230 270 302 329 339 351 8 25 38 29 32 39 51 65 64 59 64 64 55 47 40 33 15 358 345 323 330
216 212 215 215 212 215 227 235 238 240 250 261 257 260 261 258 245 240 262 282 294 305 322 336 341 358 358 1 11 28 67 53 48 49 41 32 27 19 11 5 1 348 339 340
217 214 213 217 221 218 224 234 239 241 244 257 256 260 271 265 255 246 251 262 277 286 296 306 319 309 316 314 304 326 19 16 8 7 350 345 343 335 327 334 337 334 327 320
220 214 211 217 220 221 222 231 240 245 247 249 248 254 253 254 250 248 251 252 263 276 288 291 291 285 283 284 281 286 291 302 311 313 316 312 311 309 302 303 307 313 312 307
226 221 213 215 219 221 227 231 235 239 245 245 241 242 253 257 257 254 252 251 256 268 274 274 270 269 273 273 273 271 276 282 290 291 293 298 298 295 289 289 292 296 298 301
228 227 219 218 221 223 226 229 232 238 245 248 244 243 251 256 262 263 258 252 249 256 264 264 266 265 263 264 266 266 271 279 283 289 292 297 293 292 288 287 291 293 293 294
231 232 226 222 224 226 229 232 234 240 246 250 251 248 249 256 260 260 263 260 258 259 259 263 266 263 260 262 266 267 275 279 281 284 286 286 283 288 289 289 290 289 289 290
231 233 230 223 223 226 230 233 235 240 246 249 252 250 246 255 258 257 261 262 266 265 259 265 267 263 263 265 268 271 277 278 278 283 283 283 279 279 284 287 286 287 288 286
233 234 234 231 225 227 229 232 236 239 244 249 250 250 248 250 255 259 260 263 266 267 265 260 262 264 266 271 272 269 274 273 273 275 279 281 279 277 280 284 286 285 284 284
236 236 237 236 231 229 230 233 235 239 243 248 248 247 247 250 254 258 261 263 263 264 267 265 260 260 264 267 272 269 271 273 274 274 276 277 277 277 278 281 284 284 283 284
235 236 236 237 236 232 231 231 234 238 242 246 248 247 248 249 253 257 259 262 265 267 268 267 261 260 264 269 270 270 268 271 275 277 277 276 277 277 276 278 280 281 282 284
236 237 236 235 235 234 232 230 231 234 239 243 244 246 248 250 252 255 259 262 264 268 270 266 265 264 266 271 273 268 265 268 271 274 274 275 276 276 276 276 278 279 281 282
237 238 238 237 236 236 234 233 233 235 239 242 244 244 246 248 251 254 257 260 264 267 268 268 267 268 267 269 273 267 265 268 269 271 271 273 273 274 274 276 278 279 280 280
236 238 239 240 239 240 238 236 235 237 239 241 244 245 247 250 250 252 256 259 262 265 268 270 270 270 268 268 269 268 265 265 266 268 269 270 272 272 273 275 276 278 280 281
236 238 239 239 241 241 240 240 240 241 243 242 243 245 248 249 249 252 256 260 263 265 266 268 270 270 270 268 268 268 265 264 265 266 267 269 268 270 271 273 275 277 279 281
236 238 239 240 242 243 243 243 242 243 245 245 245 245 246 247 250 253 255 259 262 265 267 268 269 269 269 268 268 268 266 265 265 265 266 269 269 271 272 273 276 277 278 279
238 239 240 241 243 245 246 246 244 245 245 245 245 246 246 248 251 253 255 257 260 262 264 266 266 266 267 266 266 266 266 266 265 266 267 269 269 271 273 274 275 276 277 278
239 240 242 243 246 249 249 248 247 247 246 247 249 250 250 250 252 254 255 256 258 259 261 263 265 265 265 265 266 266 266 267 268 269 270 270 271 273 275 275 276 276 276 277
242 243 243 244 247 248 248 249 248 247 247 247 249 251 250 251 252 254 255 256 257 257 259 262 264 264 265 265 266 267 267 268 269 270 272 272 273 274 274 275 276 276 277 277
244 246 246 247 249 249 248 248 248 247 247 245 245 249 251 252 253 254 255 255 256 257 258 259 262 264 264 264 266 267 268 268 269 270 271 272 272 274 274 274 275 276 277 279
244 245 246 247 249 249 248 247 249 248 246 245 246 247 250 252 253 255 257 258 258 257 258 260 262 264 264 264 265 266 267 268 269 270 271 272 273 273 274 274 273 275 277 278
Height
5903 5905 5906 5908 5909 5910 5910 5910 5910 5910 5910 5910 5909 5910 5909 5909 5910 5910 5909 5909 5909 5908 5907 5906 5905 5904 5904 5903 5902 5902 5902 5901 5901 5901 5902 5902 5902 5901 5901 5901 5901 5901 5900 5900
5901 5903 5905 5906 5907 5908 5909 5909 5909 5910 5910 5910 5909 5910 5909 5909 5910 5910 5909 5909 5909 5908 5908 5907 5907 5906 5905 5904 5904 5903 5903 5903 5903 5903 5903 5903 5902 5902 5902 5902 5901 5901 5901 5901
5898 5902 5903 5904 5904 5906 5907 5908 5908 5909 5910 5909 5909 5910 5909 5910 5909 5909 5909 5909 5909 5909 5909 5908 5908 5907 5906 5906 5905 5905 5904 5904 5904 5904 5904 5903 5903 5903 5903 5902 5902 5901 5901 5901
5895 5898 5900 5901 5902 5903 5905 5907 5908 5908 5908 5908 5909 5909 5909 5908 5909 5909 5909 5909 5909 5909 5909 5909 5908 5908 5907 5907 5906 5905 5905 5905 5905 5904 5904 5904 5903 5903 5903 5902 5902 5901 5901 5900
5893 5895 5897 5898 5900 5902 5903 5904 5905 5906 5906 5906 5907 5907 5908 5908 5908 5908 5908 5909 5909 5909 5909 5909 5908 5908 5908 5907 5906 5906 5906 5905 5905 5905 5904 5904 5903 5903 5903 5902 5902 5901 5900 5900
5889 5891 5893 5895 5897 5899 5900 5902 5903 5903 5904 5904 5905 5905 5905 5906 5906 5907 5907 5907 5908 5908 5908 5908 5908 5908 5907 5907 5906 5906 5906 5905 5905 5904 5904 5904 5903 5903 5902 5902 5901 5901 5900 5900
5885 5887 5890 5892 5894 5895 5897 5900 5900 5900 5900 5901 5903 5902 5903 5904 5904 5905 5905 5906 5906 5907 5907 5907 5907 5907 5907 5907 5906 5905 5905 5905 5905 5904 5904 5903 5903 5902 5902 5901 5901 5900 5899 5898
5880 5884 5886 5888 5890 5893 5894 5896 5897 5898 5898 5898 5899 5898 5901 5901 5902 5902 5903 5903 5904 5904 5905 5906 5906 5906 5906 5906 5905 5905 5905 5904 5904 5903 5903 5902 5902 5901 5901 5900 5900 5899 5898 5897
5876 5880 5882 5884 5886 5889 5890 5892 5893 5894 5894 5895 5895 5896 5897 5898 5899 5899 5900 5901 5901 5902 5902 5903 5904 5904 5904 5904 5904 5904 5904 5904 5903 5903 5902 5901 5901 5900 5900 5899 5898 5898 5897 5896
5871 5875 5878 5880 5882 5884 5887 5888 5889 5890 5890 5891 5892 5893 5894 5894 5896 5897 5897 5898 5898 5900 5900 5900 5901 5902 5902 5902 5902 5902 5902 5902 5901 5901 5900 5900 5899 5899 5898 5897 5897 5896 5895 5894
5865 5869 5873 5875 5876 5878 5882 5883 5884 5885 5886 5887 5888 5892 5891 5891 5892 5893 5894 5894 5895 5897 5897 5897 5898 5898 5898 5898 5899 5899 5900 5899 5899 5898 5898 5898 5897 5896 5896 5895 5894 5893 5893 5892
5859 5862 5866 5869 5872 5874 5876 5877 5879 5881 5882 5883 5884 5889 5887 5888 5889 5890 5890 5891 5892 5892 5893 5894 5893 5894 5895 5895 5895 5896 5897 5897 5896 5896 5895 5895 5894 5894 5893 5892 5892 5891 5890 5889
5852 5856 5859 5863 5867 5868 5870 5872 5874 5875 5877 5877 5879 5884 5883 5883 5885 5886 5887 5887 5888 5888 5889 5889 5889 5890 5891 5892 5892 5893 5894 5894 5893 5893 5892 5892 5891 5891 5890 5889 5888 5887 5886 5885
5846 5848 5852 5856 5859 5861 5863 5866 5868 5869 5870 5872 5874 5877 5878 5878 5880 5881 5882 5883 5884 5884 5884 5885 5886 5887 5888 5889 5889 5889 5889 5889 5889 5889 5889 5888 5887 5887 5886 5886 5885 5884 5882 5881
5838 5841 5843 5847 5851 5854 5857 5859 5861 5863 5864 5866 5869 5870 5872 5874 5875 5876 5876 5877 5878 5880 5880 5880 5881 5882 5883 5884 5885 5884 5883 5884 5885 5885 5885 5884 5883 5883 5882 5881 5880 5879 5878 5877
5830 5833 5836 5840 5843 5846 5850 5853 5855 5857 5859 5860 5862 5864 5866 5868 5869 5870 5871 5872 5873 5874 5875 5876 5876 5877 5878 5879 5879 5879 5879 5879 5879 5879 5879 5879 5879 5878 5877 5877 5876 5875 5874 5873
5822 5825 5828 5832 5835 5838 5842 5845 5848 5850 5852 5854 5855 5858 5859 5861 5863 5864 5865 5866 5866 5867 5868 5868 5869 5871 5872 5872 5872 5872 5873 5873 5873 5873 5873 5873 5873 5872 5872 5871 5870 5869 5868 5867
5814 5816 5819 5823 5828 5831 5836 5838 5840 5843 5845 5846 5848 5850 5852 5854 5856 5857 5858 5859 5860 5861 5861 5862 5863 5864 5864 5865 5865 5865 5867 5867 5867 5867 5867 5867 5867 5866 5865 5865 5864 5863 5861 5860
5806 5808 5811 5814 5818 5822 5827 5829 5831 5834 5836 5839 5841 5843 5844 5846 5848 5850 5851 5852 5853 5854 5854 5855 5856 5857 5857 5858 5859 5859 5860 5860 5860 5860 5860 5860 5859 5859 5858 5857 5857 5856 5855 5853
5796 5799 5803 5805 5808 5812 5818 5820 5822 5826 5828 5831 5833 5835 5837 5839 5841 5842 5843 5844 5845 5847 5848 5848 5848 5849 5850 5850 5851 5852 5852 5852 5852 5853 5852 5852 5851 5851 5850 5850 5849 5848 5847 5845
5788 5790 5793 5796 5799 5802 5807 5811 5814 5817 5820 5822 5824 5826 5828 5830 5832 5834 5835 5836 5837 5838 5840 5840 5841 5842 5842 5842 5843 5843 5844 5844 5844 5844 5844 5843 5842 5842 5842 5841 5840 5839 5838 5836
5779 5782 5784 5787 5790 5795 5797 5800 5804 5806 5809 5811 5814 5816 5818 5821 5823 5825 5827 5828 5828 5829 5830 5831 5832 5833 5834 5834 5834 5834 5835 5835 5834 5834 5834 5834 5834 5833 5832 5832 5831 5830 5828 5827
5770 5773 5775 5779 5782 5784 5787 5790 5793 5796 5798 5801 5804 5806 5809 5811 5813 5815 5817 5818 5819 5820 5821 5822 5823 5824 5824 5824 5824 5824 5825 5825 5825 5825 5825 5824 5824 5823 5822 5822 5821 5820 5818 5817
5761 5764 5767 5769 5772 5774 5776 5779 5782 5785 5788 5791 5793 5795 5797 5800 5803 5805 5807 5808 5808 5809 5810 5811 5812 5813 5813 5814 5814 5814 5814 5814 5814 5814 5814 5814 5813 5813 5812 5811 5810 5809 5808 5806
5753 5755 5758 5760 5763 5765 5767 5769 5772 5775 5777 5779 5782 5785 5787 5789 5791 5792 5793 5795 5797 5798 5799 5800 5801 5802 5802 5803 5803 5803 5803 5803 5803 5803 5803 5803 5802 5802 5801 5800 5799 5798 5797 5795
5745 5747 5749 5751 5754 5756 5758 5760 5762 5764 5767 5769 5772 5774 5776 5777 5779 5780 5782 5783 5785 5786 5788 5789 5789 5790 5791 5791 5791 5791 5791 5791 5791 5791 5791 5791 5790 5790 5789 5788 5788 5786 5785 5784